Location: Gökben Yaylas?
(36.8988°N, 29.6291°E)
Time: 13:20:22
(UTC+00:00)

USA 234 - Pass Details

Date: 15 May 2026
Orbit: 1102 x 1106 km, 123.0° (Epoch: 4 January)

Event Time Altitude Azimuth Distance (km) Brightness Sun altitude
Rises 22:38:24 0° 39° (NE) 3,923 7.0 -33.2°
Reaches altitude 10° 22:41:05 10° 31° (NNE) 2,964 6.3 -33.1°
Maximum altitude 22:46:54 36° 328° (NNW) 1,683 4.4 -32.9°
Enters shadow 22:49:36 26° 286° (WNW) 2,029 4.6 -32.7°
